OpenBCM V2.0.3 (Linux)

Packet Radio Mailbox

IZ3LSV

[San Dona' di P. JN]

 Login: GUEST





  
I0OJJ  > KEPS     21.04.26 02:41l 307 Lines 14616 Bytes #26 (0) @ AMSAT
BID : ORB26111.1
Read: GUEST
Subj: 2Line Orbital Elements 26111.AMSAT
Path: IZ3LSV<IR1UAW<IR1UAW<IR0AAB<I0OJJ
Sent: 260421/0021z @:I0OJJ.ITA.EU [Rome] obcm1.13-38-g65b7
From: I0OJJ @ I0OJJ.ITA.EU (Gustavo)
To:   KEPS @ AMSAT
X-Info: This message was generated automatically


QST de W1STR

AMSAT Orbital Elements for Amateur Satellites in TLE Format
From Orbital Analysis Office
New England Sci-Tech STEM Education Center
Natick MA April 21, 2026
To all radio amateurs


These element sets describe the orbits of various satellites 
in use by the amateur radio community. For details see:
www.amsat.org/keplerian-elements-formats/

A daily update of element sets is available at:
www.amsat.org/tle/daily-bulletin.txt
or without bulletin text:
www.amsat.org/tle/dailytle.txt


AO-07
1 07530U 74089B   26110.27853580 -.00000055  00000-0 -54021-4 0  9999
2 07530 101.9938 122.9156 0011916 240.7429 130.8720 12.53697151353260
UO-11
1 14781U 84021B   26110.36097387  .00000797  00000-0  87028-4 0  9991
2 14781  97.8014  76.6044 0008250  26.6280 333.5360 14.90640064248515
AO-27
1 22825U 93061C   26110.45217998  .00000064  00000-0  41463-4 0  9995
2 22825  98.6912 177.8774 0007225 269.4533  90.5822 14.30926136698740
FO-29
1 24278U 96046B   26110.49291107 -.00000029  00000-0  85895-5 0  9993
2 24278  98.5309 327.2441 0348888 246.0941 110.3288 13.53271346465369
GO-32
1 25397U 98043D   26110.39465796  .00000025  00000-0  31022-4 0  9998
2 25397  99.0062 101.7012 0001983  53.0721 307.0638 14.24416551443107
ISS
1 25544U 98067A   26110.52231243  .00009130  00000-0  17452-3 0  9997
2 25544  51.6326 225.5007 0006686 329.7855  30.2747 15.48851306562817
NO-44
1 26931U 01043C   26110.53640359  .00000080  00000-0  60644-4 0  9996
2 26931  67.0524  33.3801 0006588 264.1972  95.8379 14.31932813282191
SO-50
1 27607U 02058C   26110.29582782  .00000582  00000-0  86679-4 0  9995
2 27607  64.5519 308.0825 0075561 273.0036  86.2425 14.82915281255870
CO-55
1 27844U 03031E   26110.29260098  .00000190  00000-0  10144-3 0  9991
2 27844  98.6762 119.5763 0009488   1.4392 358.6813 14.24298412183435
RS-22
1 27939U 03042A   26110.62933402  .00001095  00000-0  17724-3 0  9997
2 27939  98.3461 293.3662 0012600  91.1874 356.8522 14.73361737207072
CO-65
1 32785U 08021C   26110.56493260  .00004575  00000-0  29429-3 0  9991
2 32785  97.8254  90.8224 0007833 216.2958 143.7740 15.08891111976509
CO-66
1 32791U 08021J   26110.45133551  .00011504  00000-0  38961-3 0  9991
2 32791  97.7535 105.6869 0004611 126.1597 234.0070 15.30744118978451
RS-30
1 32953U 08025A   26110.55661867  .00000033  00000-0  16202-3 0  9991
2 32953  82.5081  31.2824 0020639  76.8209 283.5172 12.43177491812536
SRMSAT
1 37841U 11058D   26110.55623616  .00000361  00000-0  51857-4 0  9992
2 37841  19.9728  48.2936 0011580 289.8127 227.1163 14.11561432749667
ZACUBE-1
1 39417U 13066B   26110.34162080  .00003155  00000-0  24891-3 0  9995
2 39417  97.8133  72.3703 0044702  85.7181 274.9149 15.00695104672053
Delfi-N3xt
1 39428U 13066N   26110.33935056  .00005748  00000-0  50974-3 0  9998
2 39428  97.8351  30.7352 0077034  40.3257 320.3640 14.94316424665983
GOMX-1
1 39430U 13066Q   26110.43753948  .00001130  00000-0  17728-3 0  9991
2 39430  97.6522 314.5354 0127484 263.0030  95.6664 14.69243361661432
LO-74
1 39440U 13066AA  26110.58016183  .00001931  00000-0  18422-3 0  9992
2 39440  97.8870  59.3503 0056945 217.2053 142.5215 14.93355565668393
AO-73
1 39444U 13066AE  26110.50253112  .00006780  00000-0  42982-3 0  9998
2 39444  97.8253  80.7938 0038362  42.6399 317.7796 15.08651764670961
DTUSAT-2
1 40030U 14033W   26109.96910591  .00006151  00000-0  34030-3 0  9992
2 40030  98.0871 104.0400 0009816  77.4113 282.8214 15.14225424643873
LILACSAT-2
1 40908U 15049K   26110.57445275  .00014518  00000-0  26461-3 0  9990
2 40908  97.4732 145.2848 0008913 101.8329 258.3922 15.49528584586823
Horyu-4
1 41340U 16012D   26110.36920761  .00084934  00000-0  62236-3 0  9996
2 41340  30.9882 134.5786 0006071 189.9438 170.1098 15.71743478561650
Lapan A3
1 41603U 16040E   26110.61623280  .00003025  00000-0  97996-4 0  9997
2 41603  97.1492 108.6731 0009176 212.8437 147.2237 15.32722959545997
CAS-2T
1 41847U 16066G   26110.47396232  .00000404  00000-0  67027-4 0  9993
2 41847  98.3837 186.8601 0341171 304.7990  52.1533 14.44559412496460
TechnoSat
1 42829U 17042E   26110.52975278  .00002719  00000-0  19743-3 0  9990
2 42829  97.4214 270.4176 0016660 292.1085  67.8373 15.04592621478038
AO-91
1 43017U 17073E   26110.37408025  .00007067  00000-0  31486-3 0  9997
2 43017  97.4781 338.7967 0153829 167.5495 192.9605 15.11659070456654
S-Net D
1 43186U 18014G   26110.19443012  .00003655  00000-0  19311-3 0  9997
2 43186  97.5400  15.3599 0007275 208.8679 151.2152 15.16116971449970
S-Net B
1 43187U 18014H   26110.53476027  .00004118  00000-0  21721-3 0  9991
2 43187  97.5406  15.6828 0008043 203.1701 156.9170 15.16091510450024
S-Net A
1 43188U 18014J   26110.19358490  .00003551  00000-0  18763-3 0  9999
2 43188  97.5416  15.5420 0007892 205.0741 155.0110 15.16123428449979
S-Net C
1 43189U 18014K   26110.53831577  .00004146  00000-0  21867-3 0  9990
2 43189  97.5433  15.9502 0009513 197.6497 162.4407 15.16083185448571
Ten-Koh
1 43677U 18084G   26110.46256430  .00001736  00000-0  13499-3 0  9994
2 43677  98.0795 300.3991 0008482 316.3049  43.7503 15.02690588407490
PO-101
1 43678U 18084H   26110.61278064  .00001916  00000-0  15837-3 0  9997
2 43678  98.1046 304.3771 0013629   4.9707 355.1648 15.00165436407588
QO-100
1 43700U 18090A   26110.50974965  .00000000  00000-0  00000-0 0  9997
2 43700   0.0119 228.0823 0001069 177.4421  12.3453  1.00271406 27091
MinXSS-2
1 43758U 18099A   26110.18831568  .00020458  00000-0  46283-3 0  9999
2 43758  97.4560 184.9398 0009256 117.8338 242.3849 15.43133583405170
AO-95
1 43770U 18099N   26110.11343448  .00010378  00000-0  41273-3 0  9995
2 43770  97.4425 170.6173 0009113 182.3452 177.7745 15.25436234404368
SNUSat 2
1 43782U 18099AA  26110.05927450  .00007223  00000-0  32891-3 0  9993
2 43782  97.4111 164.3597 0011859 134.7115 225.5088 15.20921954404196
SnugLite
1 43784U 18099AC  26109.40998418  .00010313  00000-0  40511-3 0  9996
2 43784  97.3921 164.3100 0004445 125.2700 234.8955 15.25875355404356
ITASat 1
1 43786U 18099AE  26110.36856528  .00005001  00000-0  24671-3 0  9997
2 43786  97.4082 163.0509 0012725 186.7906 173.3158 15.18294954404136
EAGLET 1
1 43790U 18099AJ  26110.37123657  .00002836  00000-0  16640-3 0  9993
2 43790  97.4285 161.5742 0011372 177.4113 182.7179 15.12484657403593
ESEO
1 43792U 18099AL  26110.37053100  .00000956  00000-0  73146-4 0  9996
2 43792  97.4040 150.2248 0012707 162.1768 197.9906 15.04069546403111
JO-97
1 43803U 18099AX  26109.72936263  .00016269  00000-0  53172-3 0  9996
2 43803  97.4172 172.4320 0007469 117.2293 242.9710 15.31781652404675
Suomi 100
1 43804U 18099AY  26110.43651570  .00007768  00000-0  29455-3 0  9993
2 43804  97.4233 171.0897 0011775 122.2153 238.0229 15.27086615404600
ISAT
1 43879U 18111D   26110.25965813  .00040688  00000-0  57330-3 0  9999
2 43879  97.5903  41.4563 0008253 126.1087 234.0932 15.56486952402136
UWE-4
1 43880U 18111E   26110.22272058  .00017664  00000-0  40688-3 0  9996
2 43880  97.5858  36.1089 0009116 155.9442 204.2233 15.42631460401835
Sparrow
1 43881U 18111F   26110.28696324  .00055854  00000-0  64663-3 0  9991
2 43881  97.6124  46.2867 0005838 135.9429 224.2294 15.61655010402309
Prox-1
1 44339U 19036A   26110.39268786  .00007697  00000-0  76533-3 0  9997
2 44339  23.9936 139.8857 0006839  87.3619 272.7663 14.89199528364842
Taurus 1
1 44530U 19059C   26110.59094458  .00004213  00000-0  68815-3 0  9995
2 44530  98.6368 271.8895 0009873 131.6746 228.5306 14.71438084350175
TO-108
1 44881U 19093C   26110.55780981  .00001184  00000-0  13999-3 0  9998
2 44881  97.7552 184.1919 0012065 278.1339  81.8508 14.86424934342859
RS-44
1 44909U 19096E   26110.46383051  .00000019  00000-0  41148-4 0  9993
2 44909  82.5263  18.0616 0216388 279.4387  78.2314 12.79747915294961
SALSAT
1 46495U 20068K   26110.43750967  .00005436  00000-0  19614-3 0  9997
2 46495  97.8868 110.0271 0011155 137.6101 222.6002 15.28924699306536
CSS (TIANHE-1)
1 48274U 21035A   26110.34681916  .00018569  00000-0  20498-3 0  9999
2 48274  41.4648 314.3083 0006488 240.5920 119.4272 15.62604461284122
CUTE
1 49263U 21088D   26110.55201802  .00081629  00000-0  58102-3 0  9991
2 49263  97.4197 205.3011 0002639 181.2750 178.8508 15.73606753253447
TeikyoSat 4
1 49396U 21102B   26110.31279443  .00001274  00000-0  83632-4 0  9990
2 49396  97.3729 142.0393 0013449 127.8143 232.4307 15.09295256243991
Z-Sat
1 49399U 21102E   26110.58688809  .00004082  00000-0  20425-3 0  9992
2 49399  97.3377 147.6608 0018543  89.0344 271.3014 15.17812211244707
KOSEN 1
1 49402U 21102H   26110.38778003  .00005609  00000-0  22011-3 0  9990
2 49402  97.3244 153.6851 0015220  57.3125 302.9579 15.26019004245208
HO-113
1 50466U 21131B   26110.57435878  .00000546  00000-0  18238-3 0  9996
2 50466  98.4954 203.2861 0002840 270.9464  89.1399 14.41300387226819
SNUGLITE 2
1 52899U 22065F   26110.35784986  .00000659  00000-0  13430-3 0  9992
2 52899  98.2116 255.3209 0007162 195.8234 164.2745 14.64233112202534
UmKA 1 (RS40S)
1 57172U 23091G   26110.57521084  .00005071  00000-0  23718-3 0  9996
2 57172  97.5095 169.5084 0011724 326.5033  33.5459 15.20160762155256
CubeBel-2 (EU11S)
1 57175U 23091K   26110.57234000  .00010177  00000-0  37710-3 0  9998
2 57175  97.5091 173.3232 0008737 324.9259  35.1403 15.27798936155507
RS-38S
1 57189U 23091Z   26110.58908304  .00012800  00000-0  38867-3 0  9998
2 57189  97.5121 178.9931 0005923 272.2355  87.8209 15.34204034155854
SONATE-2
1 59112U 24043Q   26110.34632021  .00023477  00000-0  35600-3 0  9992
2 59112  97.5477 257.4079 0007072  60.7032 299.4928 15.54602482118894
